Volver al catálogo

VM-3.1

ActivoCienciaSSO
NORAD 67273·PAYLOAD·🇷🇺 Russia
Este nombre de satélite aún no ha sido confirmado por fuentes oficiales.

Lanzado Dec 28, 2025 desde Vostochny Cosmodrome

Loading…

Próximos Pases (próximas 24 horas)

TLE

ActualizadoSource: Space-Track

Época: Sep 13, 2026, 18:42 UTC

1 67273U 25313AB  26256.77984993  .00002146  00000-0  98010-4 0  9991
2 67273  97.3885 329.6108 0015558  63.9640 296.3196 15.21565129 39407

Sigue VM-3.1 en tiempo real con AllMySat

Download on the App Store